South Haven, MI

6:21 PM EDT on March 29, 2017 (GMT -0400)
South Haven

Weather History for KLWA - February, 2014

Change the Weather History Date:

Saturday, February 22, 2014

  Actual Average (KBEH) Record (KBEH)
Temperature  
Mean Temperature 28 °F -  
Max Temperature 32 °F 39 °F 64 °F (2017)
Min Temperature 24 °F 24 °F -4 °F (1963)
Degree Days  
Heating Degree Days 37    
Moisture  
Dew Point 16 °F    
Average Humidity 60    
Maximum Humidity 73    
Minimum Humidity 47    
Precipitation  
Precipitation 0.00 in - - ()
Sea Level Pressure  
Sea Level Pressure 29.93 in    
Wind  
Wind Speed 11 mph (WSW)    
Max Wind Speed 16 mph    
Max Gust Speed 24 mph    
Visibility 10 miles    
Events      
Averages and records for this station are not official NWS values.
T = Trace of Precipitation, MM = Missing Value Source: NWS Daily Summary

Daily Weather History Graph

Daily Weather History Graph

Search for Another Location

Airport or City:

Trip Planner

Search our weather history database for the weather conditions in past years. The results will help you decide how hot, cold, wet, or windy it might be!

Date:

Astronomy

Feb. 22, 2014 Rise Set
Actual Time 7:31 AM EST 6:26 PM EST
Civil Twilight 7:02 AM EST 6:54 PM EST
Nautical Twilight 6:30 AM EST 7:27 PM EST
Astronomical Twilight 5:57 AM EST 7:59 PM EST
Moon 1:28 AM EST (2/22) 11:33 AM EST (2/22)
Length of Visible Light 11h 51m
Length of Day
10h 55m
Waning Gibbous, 50% of the Moon is Illuminated
Feb 22
Waning Gibbous
Feb 22
Last Quarter
Mar 1
New
Mar 8
First Quarter
Mar 16
Full

Hourly Weather History & Observations

Time (EST) Temp. Windchill Dew Point Humidity Pressure Visibility Wind Dir Wind Speed Gust Speed Precip Events Conditions
12:15 AM 32.0 °F 22.5 °F 22.1 °F 67% 29.77 in 10.0 mi WSW 12.7 mph 20.7 mph N/A   Overcast
12:35 AM 32.0 °F 21.2 °F 18.3 °F 57% 29.78 in 10.0 mi WSW 16.1 mph 24.2 mph N/A   Overcast
12:55 AM 31.3 °F 21.6 °F 16.2 °F 54% 29.78 in 10.0 mi WSW 12.7 mph 21.9 mph N/A   Overcast
1:15 AM 30.7 °F 21.4 °F 16.5 °F 56% 29.79 in 10.0 mi West 11.5 mph 18.4 mph N/A   Overcast
1:35 AM 30.0 °F 20.5 °F 16.5 °F 57% 29.79 in 10.0 mi West 11.5 mph 18.4 mph N/A   Overcast
1:55 AM 28.6 °F 18.2 °F 13.8 °F 54% 29.79 in 10.0 mi West 12.7 mph 21.9 mph N/A   Scattered Clouds
2:15 AM 27.9 °F 18.4 °F 14.5 °F 57% 29.80 in 10.0 mi West 10.4 mph - N/A   Mostly Cloudy
2:35 AM 27.1 °F 16.9 °F 14.0 °F 58% 29.80 in 10.0 mi West 11.5 mph 17.3 mph N/A   Scattered Clouds
2:55 AM 26.8 °F 16.5 °F 14.4 °F 60% 29.80 in 10.0 mi WSW 11.5 mph 18.4 mph N/A   Clear
3:15 AM 26.6 °F 15.7 °F 14.0 °F 59% 29.80 in 10.0 mi WSW 12.7 mph 17.3 mph N/A   Clear
3:35 AM 26.4 °F 16.6 °F 14.0 °F 59% 29.80 in 10.0 mi WSW 10.4 mph - N/A   Clear
3:55 AM 25.9 °F 16.0 °F 14.0 °F 61% 29.81 in 10.0 mi WSW 10.4 mph 16.1 mph N/A   Clear
4:15 AM 25.7 °F 17.1 °F 14.0 °F 61% 29.82 in 10.0 mi WSW 8.1 mph 16.1 mph N/A   Clear
4:35 AM 25.7 °F 15.1 °F 12.9 °F 58% 29.83 in 10.0 mi WSW 11.5 mph 18.4 mph N/A   Clear
4:55 AM 25.5 °F 15.5 °F 13.8 °F 61% 29.83 in 10.0 mi WSW 10.4 mph - N/A   Clear
5:15 AM 25.3 °F 14.1 °F 14.2 °F 63% 29.84 in 10.0 mi WSW 12.7 mph 17.3 mph N/A   Clear
5:35 AM 25.0 °F 14.8 °F 14.0 °F 63% 29.85 in 10.0 mi WSW 10.4 mph 17.3 mph N/A   Clear
5:55 AM 24.6 °F 15.8 °F 14.4 °F 65% 29.85 in 10.0 mi WSW 8.1 mph - N/A   Clear
6:15 AM 24.6 °F 13.8 °F 14.7 °F 66% 29.88 in 10.0 mi WSW 11.5 mph 17.3 mph N/A   Clear
6:35 AM 24.6 °F 14.4 °F 14.9 °F 67% 29.89 in 10.0 mi WSW 10.4 mph - N/A   Clear
6:55 AM 24.3 °F 13.9 °F 15.3 °F 69% 29.90 in 10.0 mi WSW 10.4 mph - N/A   Clear
7:15 AM 24.4 °F 13.0 °F 14.9 °F 67% 29.90 in 10.0 mi West 12.7 mph 17.3 mph N/A   Clear
7:35 AM 24.3 °F 14.6 °F 14.9 °F 68% 29.91 in 10.0 mi WSW 9.2 mph - N/A   Clear
7:55 AM 24.4 °F 15.6 °F 14.9 °F 67% 29.92 in 10.0 mi WSW 8.1 mph - N/A   Clear
8:15 AM 25.0 °F 14.8 °F 15.3 °F 67% 29.93 in 10.0 mi WSW 10.4 mph 17.3 mph N/A   Clear
8:35 AM 25.7 °F 15.1 °F 15.4 °F 65% 29.93 in 10.0 mi WSW 11.5 mph 17.3 mph N/A   Clear
8:55 AM 26.4 °F 18.0 °F 15.3 °F 63% 29.94 in 10.0 mi WSW 8.1 mph 17.3 mph N/A   Clear
9:15 AM 26.2 °F 15.2 °F 15.8 °F 65% 29.94 in 10.0 mi WSW 12.7 mph - N/A   Clear
9:35 AM 27.5 °F 16.8 °F 16.0 °F 62% 29.95 in 10.0 mi WSW 12.7 mph 16.1 mph N/A   Clear
9:55 AM 27.5 °F 15.9 °F 15.8 °F 61% 29.96 in 10.0 mi West 15.0 mph 20.7 mph N/A   Clear
10:15 AM 27.3 °F 16.6 °F 16.5 °F 64% 29.97 in 10.0 mi West 12.7 mph 17.3 mph N/A   Mostly Cloudy
10:35 AM 27.3 °F 17.7 °F 16.3 °F 63% 29.97 in 10.0 mi West 10.4 mph 18.4 mph N/A   Overcast
10:55 AM 27.5 °F 16.8 °F 16.2 °F 62% 29.98 in 10.0 mi WSW 12.7 mph 20.7 mph N/A   Overcast
11:15 AM 27.5 °F 16.3 °F 16.0 °F 62% 29.98 in 10.0 mi WSW 13.8 mph 19.6 mph N/A   Overcast
11:35 AM 27.9 °F 17.3 °F 16.5 °F 62% 29.98 in 10.0 mi SW 12.7 mph 16.1 mph N/A   Overcast
11:55 AM 28.6 °F 18.2 °F 16.0 °F 59% 29.98 in 10.0 mi SW 12.7 mph 17.3 mph N/A   Overcast
12:15 PM 28.8 °F 17.5 °F 16.3 °F 60% 29.99 in 10.0 mi WSW 15.0 mph 18.4 mph N/A   Mostly Cloudy
12:35 PM 28.4 °F 17.0 °F 16.5 °F 61% 30.00 in 10.0 mi WSW 15.0 mph 20.7 mph N/A   Overcast
12:55 PM 28.8 °F 18.4 °F 16.0 °F 59% 30.00 in 10.0 mi WSW 12.7 mph 20.7 mph N/A   Overcast
1:15 PM 28.9 °F 18.2 °F 15.3 °F 57% 29.99 in 10.0 mi WSW 13.8 mph 19.6 mph N/A   Overcast
1:35 PM 29.7 °F 19.1 °F 15.8 °F 56% 29.98 in 10.0 mi WSW 13.8 mph 19.6 mph N/A   Overcast
1:55 PM 30.0 °F 19.5 °F 16.0 °F 56% 29.97 in 10.0 mi WSW 13.8 mph 20.7 mph N/A   Overcast
2:15 PM 30.9 °F 22.2 °F 16.0 °F 54% 29.96 in 10.0 mi WSW 10.4 mph - N/A   Overcast
2:35 PM 30.9 °F 22.2 °F 16.7 °F 56% 29.97 in 10.0 mi WSW 10.4 mph 16.1 mph N/A   Overcast
2:55 PM 30.7 °F 22.0 °F 15.6 °F 54% 29.96 in 10.0 mi WSW 10.4 mph 17.3 mph N/A   Overcast
3:15 PM 31.5 °F 22.9 °F 15.8 °F 52% 29.96 in 10.0 mi West 10.4 mph - N/A   Scattered Clouds
3:35 PM 31.6 °F 22.1 °F 15.6 °F 52% 29.96 in 10.0 mi SW 12.7 mph 18.4 mph N/A   Clear
3:55 PM 32.0 °F 22.5 °F 16.5 °F 53% 29.97 in 10.0 mi WSW 12.7 mph - N/A   Clear
4:15 PM 32.0 °F 22.5 °F 16.2 °F 52% 29.97 in 10.0 mi SW 12.7 mph 17.3 mph N/A   Clear
4:35 PM 32.0 °F 25.6 °F 14.9 °F 49% 29.97 in 10.0 mi SW 6.9 mph 17.3 mph N/A   Clear
4:55 PM 32.0 °F 22.5 °F 16.7 °F 53% 29.96 in 10.0 mi SW 12.7 mph 17.3 mph N/A   Clear
5:15 PM 31.5 °F 23.5 °F 15.4 °F 52% 29.96 in 10.0 mi SW 9.2 mph 17.3 mph N/A   Clear
5:35 PM 31.8 °F 23.9 °F 15.3 °F 50% 29.95 in 10.0 mi SW 9.2 mph - N/A   Clear
5:55 PM 32.0 °F 25.6 °F 13.8 °F 47% 29.95 in 10.0 mi SW 6.9 mph - N/A   Clear
6:15 PM 31.8 °F 24.6 °F 16.0 °F 52% 29.95 in 10.0 mi SW 8.1 mph - N/A   Clear
6:35 PM 31.6 °F 23.7 °F 18.1 °F 57% 29.95 in 10.0 mi WSW 9.2 mph - N/A   Clear
6:55 PM 31.8 °F 23.3 °F 18.9 °F 59% 29.95 in 10.0 mi SW 10.4 mph 16.1 mph N/A   Clear
7:15 PM 31.8 °F 22.8 °F 19.2 °F 60% 29.96 in 10.0 mi SW 11.5 mph - N/A   Clear
7:35 PM 32.0 °F 23.0 °F 18.5 °F 58% 29.97 in 10.0 mi SW 11.5 mph 18.4 mph N/A   Clear
7:55 PM 31.8 °F 23.3 °F 19.2 °F 60% 29.97 in 10.0 mi WSW 10.4 mph 16.1 mph N/A   Clear
8:15 PM 31.8 °F 23.3 °F 19.4 °F 60% 29.98 in 10.0 mi WSW 10.4 mph 18.4 mph N/A   Clear
8:35 PM 31.5 °F 22.9 °F 21.2 °F 66% 29.99 in 10.0 mi WSW 10.4 mph 16.1 mph N/A   Clear
8:55 PM 31.1 °F 23.1 °F 21.9 °F 69% 29.99 in 10.0 mi WSW 9.2 mph - N/A   Clear
9:15 PM 30.9 °F 23.5 °F 22.6 °F 71% 30.00 in 10.0 mi WSW 8.1 mph - N/A   Clear
9:35 PM 30.2 °F 22.6 °F 22.1 °F 72% 30.01 in 10.0 mi West 8.1 mph - N/A   Clear
9:55 PM 29.8 °F 23.0 °F 22.3 °F 73% 30.01 in 10.0 mi West 6.9 mph - N/A   Clear
10:15 PM 29.8 °F 23.0 °F 18.7 °F 63% 30.02 in 10.0 mi West 6.9 mph - N/A   Clear
10:35 PM 29.3 °F 20.2 °F 17.6 °F 62% 30.02 in 10.0 mi West 10.4 mph - N/A   Clear
10:55 PM 28.9 °F 20.4 °F 16.2 °F 59% 30.02 in 10.0 mi WNW 9.2 mph - N/A   Clear
11:15 PM 28.4 °F 19.7 °F 16.5 °F 61% 30.02 in 10.0 mi West 9.2 mph - N/A   Clear
11:35 PM 28.0 °F 21.7 °F 16.7 °F 62% 30.02 in 10.0 mi WNW 5.8 mph - N/A   Clear
11:55 PM 27.5 °F 21.1 °F 16.5 °F 63% 30.02 in 10.0 mi WNW 5.8 mph - N/A   Clear